Total_Precipitation_Accumulation
0.00 0.00 0.00 0.00 0.00 0.00 0.00 0.00 0.00 0.00 0.00 0.00 0.00 0.00 0.00 0.00 0.00 0.00 0.00 0.00 0.00 0.00 0.00 0.00 0.00 0.00 0.00 0.00 0.00 0.00 0.00 0.00 0.00 0.00 0.00 0.00 0.00 0.00 0.00 0.00 0.00 0.00 0.00 0.00 0.00 0.00 0.00 0.00 0.00 0.00 0.01 0.01 0.02 0.02 0.02 0.03 0.03 0.03 0.03 0.03 0.02 0.01 0.01 0.01 0.01 0.01 0.00 0.01 0.00 0.00 0.00 0.01 0.01 0.00 0.03 0.02 0.06 0.07 0.10 0.11 0.09 0.15 0.16 0.27 0.18 0.18
0.00 0.00 0.00 0.00 0.00 0.00 0.00 0.00 0.00 0.00 0.00 0.00 0.00 0.00 0.00 0.00 0.00 0.00 0.00 0.00 0.00 0.00 0.00 0.00 0.00 0.00 0.00 0.00 0.00 0.00 0.00 0.00 0.00 0.00 0.00 0.00 0.00 0.00 0.00 0.00 0.00 0.00 0.00 0.00 0.00 0.00 0.00 0.00 0.00 0.01 0.01 0.02 0.03 0.03 0.03 0.04 0.03 0.04 0.03 0.03 0.02 0.01 0.01 0.00 0.00 0.01 0.01 0.01 0.02 0.03 0.02 0.01 0.00 0.00 0.00 0.01 0.01 0.02 0.03 0.03 0.05 0.05 0.06 0.08 0.10 0.10
0.00 0.00 0.00 0.00 0.00 0.00 0.00 0.00 0.00 0.00 0.00 0.00 0.00 0.00 0.00 0.00 0.00 0.00 0.00 0.00 0.00 0.00 0.00 0.00 0.00 0.00 0.00 0.00 0.00 0.00 0.00 0.00 0.00 0.00 0.00 0.00 0.00 0.00 0.00 0.00 0.00 0.00 0.00 0.00 0.00 0.00 0.00 0.01 0.01 0.02 0.02 0.03 0.03 0.03 0.04 0.04 0.04 0.03 0.03 0.02 0.01 0.01 0.01 0.01 0.01 0.01 0.01 0.01 0.00 0.01 0.01 0.01 0.01 0.01 0.00 0.01 0.01 0.02 0.03 0.04 0.04 0.06 0.07 0.07 0.07 0.07
0.00 0.00 0.00 0.00 0.00 0.00 0.00 0.00 0.00 0.00 0.00 0.00 0.00 0.00 0.00 0.00 0.00 0.00 0.00 0.00 0.00 0.00 0.00 0.00 0.00 0.00 0.00 0.00 0.00 0.00 0.00 0.00 0.00 0.00 0.00 0.00 0.00 0.00 0.00 0.00 0.00 0.00 0.00 0.00 0.00 0.01 0.01 0.02 0.02 0.03 0.03 0.04 0.04 0.04 0.04 0.04 0.04 0.03 0.03 0.02 0.01 0.01 0.01 0.01 0.00 0.01 0.01 0.02 0.03 0.01 0.01 0.01 0.02 0.02 0.01 0.02 0.01 0.01 0.02 0.03 0.04 0.05 0.07 0.09 0.09 0.09
0.00 0.00 0.00 0.00 0.00 0.00 0.00 0.00 0.00 0.00 0.00 0.00 0.00 0.00 0.00 0.00 0.00 0.00 0.00 0.00 0.00 0.00 0.00 0.00 0.00 0.00 0.00 0.00 0.00 0.00 0.00 0.00 0.00 0.00 0.00 0.00 0.00 0.00 0.00 0.00 0.00 0.00 0.00 0.01 0.01 0.02 0.03 0.03 0.04 0.04 0.05 0.05 0.06 0.05 0.05 0.05 0.04 0.03 0.02 0.01 0.01 0.02 0.01 0.01 0.01 0.01 0.01 0.00 0.01 0.00 0.01 0.02 0.02 0.01 0.01 0.01 0.02 0.02 0.03 0.04 0.05 0.05 0.06 0.07 0.08 0.09
0.00 0.00 0.00 0.00 0.00 0.00 0.00 0.00 0.00 0.00 0.00 0.00 0.00 0.00 0.00 0.00 0.00 0.00 0.00 0.00 0.00 0.00 0.00 0.00 0.00 0.00 0.00 0.00 0.00 0.00 0.00 0.00 0.00 0.00 0.00 0.00 0.00 0.00 0.00 0.00 0.00 0.00 0.01 0.02 0.02 0.03 0.06 0.05 0.06 0.07 0.07 0.07 0.07 0.06 0.05 0.04 0.03 0.03 0.02 0.01 0.02 0.03 0.01 0.01 0.00 0.02 0.01 0.01 0.03 0.01 0.02 0.02 0.02 0.02 0.02 0.03 0.05 0.04 0.04 0.04 0.04 0.07 0.05 0.06 0.08 0.09
0.00 0.00 0.00 0.00 0.00 0.00 0.00 0.00 0.00 0.00 0.00 0.00 0.00 0.00 0.00 0.00 0.00 0.00 0.00 0.00 0.00 0.00 0.00 0.00 0.00 0.00 0.00 0.00 0.00 0.00 0.00 0.00 0.00 0.00 0.00 0.00 0.00 0.00 0.00 0.00 0.01 0.01 0.02 0.02 0.03 0.06 0.06 0.08 0.09 0.09 0.07 0.06 0.05 0.04 0.02 0.02 0.03 0.02 0.02 0.02 0.01 0.02 0.01 0.01 0.00 0.01 0.02 0.04 0.03 0.01 0.02 0.05 0.06 0.07 0.03 0.02 0.02 0.03 0.03 0.03 0.03 0.03 0.04 0.05 0.08 0.08
0.00 0.00 0.00 0.00 0.00 0.00 0.00 0.00 0.00 0.00 0.00 0.00 0.00 0.00 0.00 0.00 0.00 0.00 0.00 0.00 0.00 0.00 0.00 0.00 0.00 0.00 0.00 0.00 0.00 0.00 0.00 0.00 0.00 0.00 0.00 0.00 0.00 0.00 0.00 0.01 0.01 0.02 0.03 0.03 0.05 0.07 0.07 0.08 0.08 0.06 0.04 0.03 0.04 0.03 0.03 0.03 0.02 0.02 0.01 0.00 0.01 0.01 0.01 0.01 0.02 0.04 0.02 0.01 0.01 0.02 0.02 0.02 0.03 0.04 0.04 0.02 0.02 0.02 0.02 0.04 0.04 0.03 0.03 0.04 0.05 0.07
0.00 0.00 0.00 0.00 0.00 0.00 0.00 0.00 0.00 0.00 0.00 0.00 0.00 0.00 0.00 0.00 0.00 0.00 0.00 0.00 0.00 0.00 0.00 0.00 0.00 0.00 0.00 0.00 0.00 0.00 0.00 0.00 0.00 0.00 0.00 0.00 0.00 0.00 0.01 0.02 0.02 0.02 0.02 0.03 0.06 0.08 0.06 0.05 0.05 0.05 0.05 0.04 0.04 0.03 0.02 0.03 0.01 0.02 0.00 0.00 0.01 0.05 0.03 0.01 0.00 0.03 0.00 0.01 0.01 0.01 0.01 0.02 0.03 0.04 0.04 0.03 0.03 0.03 0.03 0.03 0.03 0.02 0.03 0.03 0.05 0.07
0.00 0.00 0.00 0.00 0.00 0.00 0.00 0.00 0.00 0.00 0.00 0.00 0.00 0.00 0.00 0.00 0.00 0.00 0.00 0.00 0.00 0.00 0.00 0.00 0.00 0.00 0.00 0.00 0.00 0.00 0.00 0.00 0.00 0.00 0.00 0.00 0.00 0.01 0.02 0.02 0.02 0.03 0.06 0.06 0.06 0.07 0.09 0.04 0.05 0.03 0.02 0.02 0.03 0.01 0.02 0.02 0.01 0.01 0.00 0.00 0.01 0.04 0.01 0.01 0.00 0.00 0.01 0.01 0.02 0.03 0.03 0.04 0.03 0.03 0.02 0.02 0.02 0.02 0.02 0.02 0.01 0.02 0.02 0.03 0.04 0.05
0.00 0.00 0.00 0.00 0.00 0.00 0.00 0.00 0.00 0.00 0.00 0.00 0.00 0.00 0.00 0.00 0.00 0.00 0.00 0.00 0.00 0.00 0.00 0.00 0.00 0.00 0.00 0.00 0.00 0.00 0.00 0.00 0.00 0.00 0.00 0.01 0.02 0.02 0.02 0.04 0.04 0.03 0.07 0.07 0.05 0.06 0.05 0.03 0.03 0.03 0.02 0.01 0.01 0.00 0.00 0.01 0.01 0.04 0.00 0.01 0.00 0.00 0.01 0.01 0.01 0.01 0.01 0.02 0.02 0.02 0.02 0.02 0.03 0.03 0.03 0.03 0.02 0.02 0.02 0.02 0.02 0.02 0.02 0.03 0.04 0.05
0.00 0.00 0.00 0.00 0.00 0.00 0.00 0.00 0.00 0.00 0.00 0.00 0.00 0.00 0.00 0.00 0.00 0.00 0.00 0.00 0.00 0.00 0.00 0.00 0.00 0.00 0.00 0.00 0.00 0.00 0.00 0.00 0.00 0.00 0.01 0.04 0.04 0.04 0.06 0.05 0.04 0.06 0.05 0.07 0.05 0.05 0.04 0.02 0.03 0.03 0.02 0.02 0.01 0.00 0.00 0.00 0.02 0.02 0.01 0.00 0.01 0.02 0.01 0.01 0.01 0.02 0.02 0.02 0.02 0.02 0.03 0.03 0.05 0.04 0.04 0.05 0.04 0.03 0.03 0.03 0.03 0.03 0.03 0.03 0.03 0.04
0.00 0.00 0.00 0.00 0.00 0.00 0.00 0.00 0.00 0.00 0.00 0.00 0.00 0.00 0.00 0.00 0.00 0.00 0.00 0.00 0.00 0.00 0.00 0.00 0.00 0.00 0.00 0.00 0.00 0.00 0.00 0.00 0.00 0.01 0.03 0.05 0.05 0.06 0.05 0.06 0.05 0.08 0.05 0.04 0.04 0.04 0.04 0.02 0.02 0.02 0.00 0.01 0.01 0.00 0.00 0.00 0.02 0.01 0.01 0.03 0.01 0.01 0.01 0.04 0.03 0.02 0.02 0.01 0.02 0.03 0.02 0.02 0.02 0.02 0.04 0.06 0.04 0.04 0.05 0.04 0.04 0.04 0.05 0.05 0.06 0.06
0.00 0.00 0.00 0.00 0.00 0.00 0.00 0.00 0.00 0.00 0.00 0.00 0.00 0.00 0.00 0.00 0.00 0.00 0.00 0.00 0.00 0.00 0.00 0.00 0.00 0.00 0.00 0.00 0.00 0.00 0.00 0.00 0.00 0.01 0.04 0.04 0.06 0.09 0.06 0.06 0.07 0.05 0.02 0.03 0.03 0.03 0.01 0.01 0.01 0.01 0.01 0.00 0.01 0.00 0.00 0.01 0.02 0.02 0.02 0.02 0.03 0.03 0.02 0.03 0.01 0.01 0.01 0.01 0.02 0.01 0.01 0.01 0.02 0.02 0.02 0.04 0.05 0.05 0.05 0.05 0.06 0.07 0.10 0.10 0.09 0.07
0.00 0.00 0.00 0.00 0.00 0.00 0.00 0.00 0.00 0.00 0.00 0.00 0.00 0.00 0.00 0.00 0.00 0.00 0.00 0.00 0.00 0.00 0.00 0.00 0.00 0.00 0.00 0.00 0.00 0.00 0.00 0.00 0.00 0.03 0.05 0.07 0.05 0.02 0.04 0.05 0.03 0.02 0.02 0.02 0.02 0.02 0.03 0.01 0.01 0.01 0.00 0.01 0.01 0.01 0.01 0.01 0.03 0.02 0.03 0.04 0.03 0.02 0.01 0.02 0.01 0.01 0.01 0.01 0.01 0.00 0.01 0.02 0.03 0.01 0.01 0.01 0.02 0.03 0.04 0.06 0.10 0.09 0.08 0.09 0.06 0.06
0.00 0.00 0.00 0.00 0.00 0.00 0.00 0.00 0.00 0.00 0.00 0.00 0.00 0.00 0.00 0.00 0.00 0.00 0.00 0.00 0.00 0.00 0.00 0.00 0.00 0.00 0.00 0.00 0.00 0.00 0.00 0.00 0.01 0.04 0.05 0.20 0.14 0.05 0.05 0.04 0.03 0.03 0.03 0.02 0.02 0.01 0.01 0.00 0.01 0.02 0.01 0.01 0.02 0.02 0.02 0.02 0.03 0.03 0.04 0.02 0.01 0.01 0.01 0.01 0.01 0.01 0.01 0.01 0.00 0.00 0.00 0.01 0.01 0.02 0.02 0.02 0.02 0.02 0.04 0.06 0.08 0.07 0.07 0.07 0.07 0.07
0.00 0.00 0.00 0.00 0.00 0.00 0.00 0.00 0.00 0.00 0.00 0.00 0.00 0.00 0.00 0.00 0.00 0.00 0.00 0.00 0.00 0.00 0.00 0.00 0.00 0.00 0.00 0.00 0.00 0.00 0.00 0.01 0.03 0.05 0.17 0.19 0.14 0.08 0.08 0.08 0.04 0.03 0.02 0.01 0.02 0.02 0.02 0.01 0.01 0.02 0.00 0.02 0.02 0.03 0.03 0.03 0.05 0.05 0.03 0.01 0.01 0.01 0.01 0.01 0.01 0.01 0.01 0.00 0.00 0.00 0.01 0.01 0.01 0.01 0.02 0.02 0.02 0.04 0.04 0.04 0.05 0.07 0.06 0.06 0.05 0.06
0.00 0.00 0.00 0.00 0.00 0.00 0.00 0.00 0.00 0.00 0.00 0.00 0.00 0.00 0.00 0.00 0.00 0.00 0.00 0.00 0.00 0.00 0.00 0.00 0.00 0.00 0.00 0.00 0.01 0.00 0.02 0.04 0.06 0.17 0.32 0.09 0.14 0.12 0.09 0.06 0.04 0.02 0.02 0.01 0.02 0.01 0.02 0.01 0.01 0.02 0.01 0.03 0.03 0.04 0.03 0.02 0.06 0.03 0.02 0.01 0.01 0.01 0.01 0.02 0.01 0.01 0.01 0.01 0.01 0.01 0.01 0.01 0.01 0.01 0.02 0.03 0.05 0.05 0.05 0.04 0.04 0.05 0.04 0.04 0.05 0.10
0.00 0.00 0.00 0.00 0.00 0.00 0.00 0.00 0.00 0.00 0.00 0.00 0.00 0.00 0.00 0.00 0.00 0.00 0.00 0.00 0.00 0.00 0.00 0.00 0.00 0.00 0.00 0.00 0.00 0.02 0.06 0.08 0.12 0.26 0.23 0.15 0.13 0.15 0.11 0.06 0.03 0.03 0.02 0.02 0.02 0.02 0.03 0.01 0.01 0.02 0.01 0.03 0.03 0.06 0.05 0.04 0.07 0.02 0.02 0.02 0.01 0.01 0.02 0.01 0.01 0.01 0.01 0.01 0.01 0.01 0.01 0.00 0.01 0.01 0.03 0.05 0.05 0.04 0.03 0.03 0.02 0.02 0.03 0.08 0.05 0.07
0.00 0.00 0.00 0.00 0.00 0.00 0.00 0.00 0.00 0.00 0.00 0.00 0.00 0.00 0.00 0.00 0.00 0.00 0.00 0.00 0.00 0.00 0.02 0.02 0.01 0.01 0.00 0.00 0.01 0.05 0.08 0.10 0.19 0.29 0.14 0.12 0.14 0.08 0.06 0.03 0.03 0.03 0.02 0.01 0.02 0.04 0.05 0.01 0.01 0.03 0.03 0.05 0.05 0.04 0.02 0.04 0.04 0.03 0.02 0.01 0.01 0.01 0.02 0.01 0.01 0.01 0.01 0.01 0.01 0.00 0.00 0.01 0.01 0.03 0.04 0.03 0.02 0.02 0.02 0.01 0.01 0.03 0.11 0.11 0.08 0.07
0.00 0.00 0.00 0.00 0.00 0.00 0.00 0.00 0.00 0.00 0.00 0.00 0.00 0.00 0.00 0.00 0.00 0.00 0.00 0.00 0.00 0.01 0.02 0.03 0.05 0.01 0.00 0.01 0.03 0.06 0.07 0.24 0.27 0.21 0.11 0.11 0.08 0.05 0.03 0.02 0.02 0.02 0.02 0.02 0.02 0.04 0.04 0.01 0.03 0.03 0.03 0.06 0.05 0.04 0.03 0.04 0.04 0.03 0.02 0.02 0.01 0.01 0.02 0.01 0.01 0.01 0.01 0.01 0.00 0.01 0.01 0.01 0.03 0.03 0.02 0.01 0.01 0.01 0.02 0.02 0.04 0.06 0.07 0.09 0.10 0.12
0.00 0.00 0.00 0.00 0.00 0.00 0.00 0.00 0.00 0.00 0.00 0.00 0.00 0.00 0.00 0.00 0.00 0.00 0.00 0.00 0.00 0.01 0.02 0.05 0.06 0.02 0.00 0.01 0.03 0.05 0.08 0.16 0.14 0.11 0.07 0.04 0.03 0.02 0.02 0.02 0.01 0.01 0.01 0.02 0.04 0.06 0.02 0.01 0.02 0.03 0.02 0.04 0.03 0.04 0.02 0.03 0.05 0.04 0.03 0.01 0.01 0.01 0.03 0.01 0.01 0.01 0.01 0.01 0.01 0.01 0.01 0.03 0.02 0.01 0.01 0.01 0.01 0.05 0.03 0.05 0.05 0.05 0.06 0.09 0.11 0.11
0.00 0.00 0.00 0.00 0.00 0.00 0.00 0.00 0.00 0.00 0.00 0.00 0.00 0.00 0.00 0.00 0.00 0.00 0.01 0.00 0.00 0.00 0.00 0.01 0.09 0.06 0.00 0.01 0.02 0.03 0.11 0.09 0.09 0.06 0.02 0.03 0.03 0.03 0.02 0.02 0.01 0.01 0.01 0.02 0.01 0.04 0.02 0.03 0.03 0.03 0.04 0.08 0.07 0.05 0.04 0.05 0.05 0.03 0.02 0.01 0.02 0.01 0.02 0.01 0.01 0.01 0.01 0.01 0.01 0.02 0.02 0.02 0.01 0.02 0.02 0.01 0.04 0.05 0.04 0.04 0.04 0.04 0.09 0.09 0.09 0.10
0.00 0.00 0.00 0.00 0.00 0.00 0.00 0.00 0.00 0.00 0.00 0.00 0.00 0.00 0.00 0.00 0.00 0.00 0.00 0.00 0.01 0.01 0.03 0.06 0.14 0.03 0.01 0.02 0.01 0.04 0.10 0.09 0.11 0.09 0.10 0.12 0.07 0.04 0.03 0.04 0.01 0.01 0.02 0.01 0.03 0.05 0.02 0.03 0.03 0.03 0.02 0.05 0.04 0.03 0.03 0.07 0.05 0.03 0.02 0.01 0.02 0.02 0.02 0.01 0.01 0.01 0.01 0.01 0.02 0.02 0.01 0.01 0.04 0.01 0.02 0.04 0.09 0.03 0.03 0.06 0.08 0.06 0.06 0.06 0.07 0.09
0.00 0.00 0.00 0.00 0.00 0.00 0.00 0.00 0.00 0.00 0.00 0.00 0.00 0.00 0.00 0.00 0.00 0.00 0.00 0.00 0.01 0.02 0.02 0.08 0.19 0.03 0.01 0.00 0.00 0.07 0.03 0.09 0.05 0.05 0.04 0.05 0.03 0.03 0.02 0.02 0.02 0.03 0.03 0.04 0.04 0.06 0.03 0.03 0.03 0.02 0.04 0.06 0.06 0.05 0.05 0.07 0.04 0.03 0.02 0.01 0.02 0.03 0.02 0.01 0.01 0.01 0.02 0.02 0.02 0.02 0.01 0.02 0.02 0.02 0.03 0.06 0.03 0.05 0.04 0.04 0.05 0.05 0.08 0.11 0.12 0.14
0.00 0.00 0.00 0.00 0.00 0.00 0.00 0.00 0.00 0.00 0.00 0.00 0.00 0.00 0.00 0.00 0.00 0.00 0.00 0.01 0.03 0.02 0.04 0.07 0.07 0.03 0.01 0.02 0.06 0.06 0.05 0.08 0.06 0.04 0.03 0.03 0.04 0.03 0.03 0.02 0.03 0.04 0.04 0.03 0.06 0.04 0.05 0.06 0.05 0.03 0.05 0.06 0.05 0.07 0.05 0.07 0.04 0.03 0.02 0.02 0.02 0.03 0.01 0.01 0.01 0.02 0.02 0.02 0.02 0.02 0.01 0.02 0.02 0.03 0.05 0.04 0.03 0.05 0.05 0.06 0.08 0.08 0.07 0.10 0.09 0.11
0.00 0.00 0.00 0.00 0.00 0.00 0.00 0.00 0.00 0.00 0.00 0.00 0.00 0.00 0.00 0.00 0.00 0.00 0.00 0.01 0.05 0.04 0.08 0.06 0.16 0.04 0.04 0.10 0.12 0.08 0.11 0.11 0.08 0.05 0.04 0.03 0.03 0.03 0.03 0.03 0.04 0.04 0.04 0.04 0.08 0.06 0.05 0.03 0.03 0.05 0.07 0.08 0.06 0.07 0.05 0.06 0.03 0.03 0.02 0.02 0.01 0.02 0.00 0.01 0.02 0.02 0.02 0.02 0.02 0.02 0.02 0.02 0.03 0.04 0.05 0.05 0.03 0.04 0.07 0.08 0.06 0.05 0.07 0.06 0.09 0.09
0.00 0.00 0.00 0.00 0.00 0.00 0.00 0.00 0.00 0.00 0.00 0.00 0.00 0.00 0.00 0.00 0.00 0.00 0.00 0.02 0.02 0.07 0.12 0.04 0.03 0.11 0.10 0.15 0.13 0.11 0.12 0.11 0.07 0.05 0.04 0.03 0.03 0.03 0.03 0.05 0.11 0.04 0.06 0.06 0.06 0.05 0.04 0.03 0.03 0.04 0.05 0.08 0.05 0.05 0.05 0.05 0.03 0.03 0.02 0.02 0.01 0.01 0.01 0.02 0.02 0.02 0.02 0.02 0.02 0.02 0.03 0.03 0.03 0.04 0.03 0.04 0.07 0.05 0.06 0.06 0.06 0.08 0.07 0.10 0.10 0.14
0.00 0.00 0.00 0.00 0.00 0.00 0.00 0.00 0.00 0.00 0.00 0.00 0.00 0.00 0.00 0.00 0.00 0.00 0.01 0.01 0.03 0.11 0.10 0.04 0.05 0.08 0.10 0.14 0.13 0.11 0.11 0.11 0.06 0.03 0.02 0.02 0.04 0.05 0.06 0.07 0.08 0.05 0.05 0.04 0.08 0.05 0.03 0.03 0.04 0.05 0.05 0.05 0.04 0.05 0.05 0.04 0.03 0.02 0.02 0.01 0.01 0.01 0.02 0.02 0.02 0.02 0.02 0.02 0.02 0.03 0.03 0.03 0.03 0.10 0.04 0.11 0.07 0.06 0.05 0.05 0.05 0.07 0.07 0.08 0.08 0.11
0.00 0.00 0.00 0.00 0.00 0.00 0.00 0.00 0.00 0.00 0.00 0.00 0.00 0.00 0.00 0.00 0.00 0.00 0.01 0.01 0.02 0.02 0.02 0.04 0.06 0.08 0.09 0.12 0.10 0.09 0.08 0.06 0.03 0.02 0.03 0.03 0.06 0.09 0.08 0.09 0.05 0.06 0.05 0.07 0.08 0.05 0.03 0.05 0.06 0.08 0.07 0.05 0.05 0.05 0.06 0.05 0.03 0.02 0.01 0.01 0.01 0.02 0.02 0.02 0.02 0.02 0.02 0.03 0.03 0.03 0.07 0.03 0.04 0.09 0.05 0.05 0.04 0.08 0.05 0.03 0.05 0.07 0.09 0.07 0.06 0.05
0.00 0.00 0.01 0.00 0.00 0.00 0.00 0.00 0.00 0.00 0.00 0.00 0.00 0.00 0.00 0.00 0.00 0.00 0.01 0.01 0.01 0.02 0.05 0.06 0.10 0.11 0.08 0.09 0.10 0.07 0.05 0.04 0.04 0.05 0.06 0.03 0.03 0.07 0.07 0.08 0.06 0.06 0.06 0.08 0.08 0.05 0.04 0.07 0.06 0.08 0.07 0.06 0.06 0.05 0.07 0.05 0.04 0.02 0.01 0.01 0.03 0.03 0.02 0.02 0.02 0.02 0.02 0.03 0.03 0.03 0.03 0.07 0.06 0.05 0.04 0.03 0.02 0.03 0.05 0.04 0.04 0.06 0.08 0.10 0.10 0.09
0.00 0.00 0.00 0.00 0.00 0.00 0.00 0.00 0.00 0.00 0.00 0.00 0.00 0.00 0.00 0.00 0.00 0.01 0.01 0.01 0.01 0.04 0.07 0.12 0.14 0.14 0.11 0.07 0.09 0.06 0.05 0.04 0.05 0.02 0.07 0.06 0.08 0.09 0.09 0.09 0.07 0.06 0.06 0.12 0.11 0.06 0.08 0.09 0.10 0.08 0.09 0.06 0.06 0.06 0.07 0.04 0.03 0.02 0.02 0.03 0.04 0.03 0.03 0.02 0.02 0.02 0.05 0.03 0.03 0.06 0.06 0.08 0.04 0.03 0.03 0.02 0.02 0.03 0.04 0.05 0.05 0.05 0.06 0.07 0.11 0.10
0.00 0.00 0.00 0.00 0.00 0.00 0.00 0.00 0.00 0.00 0.00 0.00 0.00 0.00 0.00 0.00 0.01 0.00 0.00 0.00 0.01 0.02 0.09 0.15 0.14 0.08 0.07 0.07 0.06 0.07 0.06 0.04 0.05 0.03 0.05 0.06 0.08 0.14 0.13 0.12 0.08 0.05 0.08 0.13 0.09 0.08 0.10 0.12 0.12 0.09 0.08 0.06 0.06 0.06 0.05 0.03 0.02 0.02 0.03 0.04 0.04 0.03 0.03 0.03 0.03 0.03 0.03 0.03 0.04 0.04 0.10 0.04 0.03 0.03 0.02 0.03 0.03 0.05 0.07 0.07 0.07 0.07 0.08 0.10 0.11 0.11
0.00 0.00 0.00 0.00 0.00 0.00 0.00 0.00 0.00 0.00 0.00 0.00 0.00 0.00 0.00 0.01 0.01 0.01 0.01 0.01 0.01 0.02 0.03 0.03 0.05 0.07 0.08 0.09 0.09 0.07 0.05 0.04 0.02 0.01 0.04 0.05 0.07 0.10 0.08 0.06 0.08 0.08 0.09 0.10 0.10 0.12 0.12 0.11 0.10 0.09 0.10 0.08 0.06 0.06 0.04 0.02 0.03 0.03 0.03 0.04 0.03 0.04 0.04 0.03 0.03 0.03 0.04 0.05 0.04 0.05 0.06 0.04 0.04 0.03 0.03 0.03 0.05 0.07 0.08 0.11 0.09 0.09 0.14 0.12 0.13 0.15
0.00 0.00 0.00 0.00 0.00 0.00 0.00 0.00 0.00 0.00 0.00 0.00 0.00 0.00 0.00 0.00 0.00 0.01 0.02 0.03 0.02 0.03 0.04 0.09 0.11 0.10 0.08 0.08 0.07 0.05 0.03 0.03 0.02 0.03 0.03 0.03 0.04 0.05 0.09 0.05 0.11 0.07 0.11 0.10 0.10 0.12 0.14 0.12 0.11 0.10 0.11 0.08 0.07 0.05 0.03 0.03 0.04 0.05 0.04 0.04 0.04 0.04 0.03 0.03 0.04 0.05 0.05 0.05 0.05 0.07 0.04 0.05 0.04 0.04 0.05 0.07 0.06 0.07 0.08 0.09 0.09 0.09 0.12 0.16 0.16 0.16
0.00 0.00 0.00 0.00 0.00 0.00 0.00 0.00 0.00 0.00 0.00 0.00 0.00 0.00 0.00 0.01 0.02 0.03 0.08 0.05 0.02 0.02 0.05 0.07 0.09 0.08 0.05 0.05 0.06 0.05 0.05 0.03 0.03 0.02 0.03 0.02 0.03 0.06 0.04 0.04 0.03 0.05 0.07 0.10 0.17 0.15 0.14 0.13 0.14 0.15 0.12 0.08 0.05 0.05 0.04 0.06 0.06 0.06 0.05 0.08 0.06 0.03 0.03 0.04 0.06 0.06 0.06 0.07 0.08 0.05 0.06 0.06 0.06 0.05 0.06 0.07 0.11 0.09 0.11 0.10 0.10 0.13 0.15 0.17 0.18 0.20
0.00 0.00 0.00 0.00 0.00 0.00 0.00 0.00 0.00 0.00 0.00 0.00 0.00 0.01 0.01 0.02 0.03 0.05 0.06 0.05 0.02 0.07 0.06 0.07 0.07 0.06 0.05 0.05 0.05 0.05 0.05 0.05 0.05 0.05 0.02 0.03 0.04 0.03 0.06 0.02 0.03 0.05 0.08 0.11 0.13 0.13 0.13 0.14 0.12 0.10 0.08 0.05 0.05 0.05 0.06 0.07 0.09 0.08 0.08 0.08 0.04 0.04 0.05 0.07 0.07 0.09 0.09 0.10 0.10 0.09 0.05 0.05 0.07 0.08 0.08 0.11 0.12 0.13 0.12 0.18 0.16 0.16 0.23 0.23 0.24 0.26
0.00 0.00 0.00 0.00 0.00 0.00 0.00 0.00 0.00 0.00 0.01 0.01 0.01 0.01 0.01 0.01 0.02 0.03 0.04 0.05 0.01 0.07 0.04 0.05 0.07 0.10 0.06 0.06 0.06 0.06 0.07 0.12 0.15 0.10 0.07 0.04 0.04 0.06 0.03 0.02 0.03 0.05 0.08 0.11 0.07 0.10 0.14 0.14 0.11 0.08 0.05 0.04 0.05 0.07 0.07 0.07 0.11 0.12 0.08 0.07 0.05 0.07 0.07 0.08 0.09 0.09 0.10 0.14 0.06 0.06 0.05 0.07 0.10 0.11 0.11 0.13 0.15 0.16 0.13 0.14 0.24 0.21 0.22 0.30 0.28 0.27
0.00 0.00 0.00 0.00 0.00 0.00 0.00 0.00 0.00 0.01 0.01 0.01 0.01 0.01 0.01 0.01 0.02 0.02 0.03 0.04 0.03 0.05 0.05 0.05 0.07 0.06 0.06 0.08 0.08 0.08 0.15 0.24 0.21 0.16 0.08 0.05 0.06 0.02 0.02 0.02 0.03 0.06 0.07 0.05 0.09 0.13 0.09 0.08 0.08 0.06 0.04 0.05 0.08 0.09 0.09 0.10 0.11 0.09 0.08 0.07 0.07 0.08 0.10 0.10 0.09 0.10 0.12 0.09 0.06 0.06 0.07 0.08 0.09 0.11 0.14 0.14 0.17 0.17 0.19 0.19 0.23 0.22 0.26 0.29 0.28 0.25
0.00 0.00 0.00 0.00 0.00 0.00 0.00 0.01 0.01 0.00 0.01 0.01 0.01 0.01 0.01 0.01 0.01 0.02 0.08 0.12 0.11 0.06 0.05 0.05 0.06 0.06 0.07 0.07 0.07 0.11 0.20 0.24 0.18 0.15 0.06 0.04 0.03 0.02 0.02 0.02 0.05 0.06 0.04 0.05 0.12 0.11 0.09 0.07 0.05 0.04 0.05 0.09 0.09 0.11 0.12 0.10 0.09 0.10 0.09 0.08 0.13 0.14 0.11 0.10 0.10 0.11 0.10 0.09 0.16 0.10 0.09 0.08 0.12 0.12 0.13 0.21 0.13 0.15 0.21 0.22 0.26 0.28 0.30 0.26 0.24 0.29
0.00 0.00 0.00 0.00 0.00 0.00 0.00 0.01 0.00 0.01 0.00 0.01 0.01 0.01 0.01 0.01 0.03 0.13 0.26 0.23 0.07 0.04 0.04 0.03 0.05 0.05 0.06 0.07 0.11 0.13 0.12 0.14 0.13 0.07 0.04 0.04 0.03 0.02 0.01 0.04 0.07 0.05 0.06 0.08 0.09 0.06 0.06 0.05 0.07 0.07 0.07 0.11 0.10 0.11 0.11 0.11 0.13 0.13 0.11 0.17 0.14 0.11 0.10 0.09 0.11 0.14 0.16 0.15 0.14 0.08 0.08 0.16 0.17 0.18 0.11 0.13 0.15 0.18 0.23 0.29 0.30 0.23 0.24 0.28 0.37 0.48
0.00 0.00 0.00 0.00 0.00 0.00 0.00 0.01 0.01 0.01 0.01 0.01 0.01 0.01 0.01 0.06 0.22 0.34 0.16 0.03 0.02 0.03 0.02 0.07 0.08 0.05 0.06 0.07 0.07 0.09 0.09 0.05 0.06 0.03 0.04 0.04 0.02 0.02 0.03 0.03 0.02 0.04 0.05 0.08 0.07 0.06 0.05 0.06 0.06 0.06 0.09 0.08 0.12 0.09 0.10 0.13 0.18 0.21 0.18 0.16 0.13 0.10 0.10 0.10 0.13 0.16 0.12 0.08 0.07 0.08 0.08 0.10 0.17 0.11 0.15 0.13 0.20 0.26 0.30 0.22 0.21 0.25 0.32 0.49 0.55 0.55
0.00 0.00 0.00 0.00 0.00 0.00 0.00 0.02 0.04 0.08 0.05 0.00 0.00 0.02 0.01 0.08 0.11 0.03 0.01 0.02 0.02 0.01 0.02 0.04 0.04 0.04 0.04 0.06 0.07 0.09 0.06 0.06 0.05 0.04 0.04 0.03 0.03 0.05 0.04 0.03 0.05 0.08 0.08 0.06 0.06 0.04 0.08 0.06 0.06 0.08 0.10 0.09 0.07 0.08 0.11 0.16 0.21 0.21 0.15 0.14 0.11 0.09 0.10 0.13 0.19 0.18 0.11 0.10 0.09 0.08 0.12 0.12 0.12 0.15 0.20 0.18 0.22 0.30 0.29 0.23 0.24 0.33 0.44 0.49 0.56 0.62
0.00 0.00 0.00 0.00 0.00 0.02 0.02 0.03 0.03 0.01 0.00 0.00 0.00 0.02 0.01 0.02 0.04 0.01 0.01 0.01 0.01 0.01 0.02 0.03 0.04 0.03 0.03 0.04 0.06 0.06 0.07 0.07 0.07 0.06 0.06 0.06 0.07 0.06 0.04 0.06 0.08 0.08 0.07 0.07 0.07 0.07 0.08 0.09 0.09 0.12 0.11 0.05 0.07 0.13 0.11 0.21 0.24 0.20 0.17 0.14 0.09 0.10 0.18 0.17 0.15 0.10 0.11 0.11 0.09 0.08 0.11 0.15 0.11 0.13 0.17 0.21 0.26 0.30 0.33 0.33 0.40 0.44 0.45 0.51 0.66 0.70
0.00 0.00 0.00 0.00 0.00 0.00 0.01 0.00 0.00 0.00 0.00 0.00 0.00 0.00 0.00 0.00 0.00 0.00 0.00 0.00 0.01 0.01 0.01 0.02 0.03 0.03 0.03 0.04 0.04 0.06 0.08 0.09 0.08 0.07 0.08 0.09 0.08 0.06 0.07 0.12 0.11 0.09 0.09 0.09 0.09 0.07 0.08 0.11 0.15 0.12 0.08 0.08 0.10 0.08 0.13 0.17 0.21 0.19 0.17 0.13 0.11 0.19 0.27 0.20 0.14 0.13 0.13 0.11 0.09 0.13 0.10 0.11 0.12 0.15 0.18 0.23 0.33 0.40 0.41 0.48 0.47 0.50 0.47 0.58 0.64 0.61
0.00 0.00 0.00 0.00 0.00 0.00 0.00 0.00 0.00 0.00 0.00 0.00 0.00 0.00 0.00 0.00 0.00 0.00 0.00 0.00 0.00 0.01 0.01 0.02 0.01 0.02 0.02 0.02 0.04 0.06 0.09 0.08 0.08 0.08 0.09 0.08 0.06 0.07 0.11 0.12 0.08 0.09 0.08 0.09 0.09 0.07 0.10 0.14 0.13 0.08 0.11 0.12 0.09 0.13 0.12 0.11 0.11 0.16 0.16 0.15 0.20 0.24 0.28 0.17 0.17 0.16 0.14 0.11 0.10 0.10 0.11 0.12 0.12 0.17 0.25 0.28 0.32 0.40 0.45 0.49 0.51 0.53 0.55 0.58 0.58 0.54
0.00 0.00 0.00 0.00 0.00 0.00 0.00 0.00 0.00 0.00 0.00 0.00 0.00 0.00 0.00 0.00 0.00 0.00 0.00 0.00 0.00 0.01 0.01 0.01 0.01 0.01 0.02 0.01 0.03 0.06 0.08 0.08 0.08 0.09 0.08 0.08 0.13 0.14 0.14 0.12 0.11 0.12 0.11 0.11 0.10 0.13 0.15 0.13 0.10 0.13 0.18 0.18 0.16 0.13 0.10 0.09 0.09 0.11 0.14 0.20 0.22 0.24 0.20 0.19 0.20 0.20 0.16 0.13 0.11 0.11 0.12 0.15 0.23 0.25 0.26 0.28 0.32 0.37 0.41 0.41 0.48 0.54 0.58 0.62 0.63 0.58
0.00 0.00 0.00 0.00 0.01 0.01 0.01 0.00 0.00 0.00 0.00 0.00 0.00 0.00 0.00 0.00 0.00 0.00 0.00 0.00 0.01 0.00 0.01 0.01 0.01 0.01 0.01 0.02 0.04 0.05 0.07 0.07 0.08 0.09 0.10 0.15 0.21 0.15 0.13 0.13 0.13 0.10 0.10 0.10 0.10 0.17 0.13 0.09 0.16 0.23 0.22 0.20 0.18 0.10 0.09 0.09 0.10 0.11 0.13 0.17 0.21 0.18 0.20 0.26 0.25 0.26 0.18 0.14 0.13 0.14 0.15 0.19 0.24 0.30 0.30 0.32 0.33 0.39 0.44 0.48 0.53 0.58 0.62 0.72 0.79 0.81
0.00 0.00 0.01 0.00 0.02 0.01 0.00 0.00 0.01 0.01 0.02 0.01 0.00 0.00 0.00 0.00 0.00 0.00 0.00 0.01 0.00 0.01 0.01 0.01 0.01 0.01 0.01 0.02 0.03 0.05 0.07 0.09 0.10 0.11 0.16 0.21 0.18 0.14 0.13 0.11 0.11 0.11 0.10 0.12 0.17 0.15 0.09 0.14 0.25 0.21 0.19 0.26 0.12 0.17 0.11 0.12 0.10 0.09 0.12 0.17 0.18 0.24 0.29 0.31 0.26 0.22 0.25 0.15 0.15 0.16 0.19 0.26 0.26 0.27 0.33 0.36 0.34 0.39 0.53 0.61 0.71 0.72 0.66 0.60 0.70 0.86
0.03 0.08 0.10 0.08 0.04 0.01 0.02 0.02 0.01 0.02 0.02 0.01 0.00 0.00 0.00 0.00 0.00 0.00 0.01 0.01 0.01 0.02 0.01 0.02 0.02 0.02 0.02 0.02 0.04 0.05 0.06 0.07 0.09 0.12 0.18 0.15 0.13 0.11 0.12 0.09 0.10 0.12 0.14 0.16 0.11 0.08 0.12 0.13 0.20 0.17 0.20 0.12 0.11 0.15 0.14 0.12 0.11 0.11 0.14 0.17 0.21 0.28 0.37 0.39 0.34 0.31 0.21 0.18 0.19 0.20 0.25 0.30 0.28 0.32 0.33 0.40 0.43 0.46 0.47 0.50 0.71 0.86 0.82 0.66 0.53 0.50
0.00 0.00 0.07 0.12 0.01 0.02 0.02 0.01 0.01 0.00 0.00 0.00 0.00 0.00 0.00 0.00 0.00 0.00 0.01 0.01 0.01 0.01 0.01 0.02 0.03 0.03 0.03 0.03 0.03 0.04 0.05 0.08 0.11 0.14 0.15 0.11 0.09 0.09 0.09 0.13 0.16 0.17 0.20 0.14 0.12 0.12 0.17 0.17 0.14 0.17 0.14 0.14 0.16 0.15 0.12 0.13 0.11 0.13 0.15 0.19 0.22 0.28 0.30 0.35 0.42 0.36 0.26 0.24 0.24 0.24 0.30 0.30 0.35 0.36 0.38 0.43 0.44 0.47 0.51 0.51 0.50 0.52 0.53 0.46 0.48 0.45